Preview of NWS' New Version of Forecast
This preview is not operational and should not be used for support decisions.

Regional Weather Roundup (RWR)

Issued by National Weather Service (NWS)

                            
000
ASUS43 KLSX 190257
RWRMO 

WEATHER SUMMARY FOR MISSOURI
NATIONAL WEATHER SERVICE SPRINGFIELD MO
1000 PM CDT THU APR 18 2019

NOTE: "FAIR" INDICATES FEW OR NO CLOUDS BELOW 12,000 FEET WITH NO
       SIGNIFICANT WEATHER AND/OR OBSTRUCTIONS TO VISIBILITY.
       CURRENT SKY AND/OR WEATHER CONDITIONS ARE NOT AVAILABLE FOR
       CHILLICOTHE AND FARMINGTON.

MOZ001>031-035>038-043-044-053-054-190400-
...NORTHERN AND WESTERN MISSOURI...
  
CITY           SKY/WX    TMP DP  RH WIND       PRES   REMARKS
KANSAS CTY INT MOCLDY    50  40  68 N9        29.90R                  
LEE'S SUMMIT   CLOUDY    53  39  59 N15G24    29.88R                  
ST JOSEPH      PTCLDY    51  41  68 N10       29.93R                  
CHILLICOTHE      N/A     53  37  54 N8        29.89S                  
     
$$
MOZ066>068-077>081-088>096-101>105-190400-
...SOUTHWEST MISSOURI...
  
CITY           SKY/WX    TMP DP  RH WIND       PRES   REMARKS
SPRINGFIELD    MOCLDY    50  40  68 N10       29.81R                  
JOPLIN         CLEAR     51  40  65 NW3       29.86R                  
               
$$
MOZ032>034-039>042-045>050-055>058-069>072-190400-
...CENTRAL MISSOURI...  
  
CITY           SKY/WX    TMP DP  RH WIND       PRES   REMARKS
COLUMBIA       NOT AVBL                                               
JEFFERSON CITY CLOUDY    54  41  61 NW6       29.81S                  
ROLLA          CLOUDY    48  42  80 N6        29.78F                  
SEDALIA        MOCLDY    50  41  71 N15       29.84S                  
WARRENSBURG    CLEAR     50  41  71 N5        29.85S                  
               
$$
MOZ051-052-059>065-190400-
...EAST CENTRAL MISSOURI...
  
CITY           SKY/WX    TMP DP  RH WIND       PRES   REMARKS
ST LOUIS INTL  CLOUDY    50  43  77 N7        29.78R                  
                   
$$
MOZ072>076-082>087-097>100-106>115-190400-
...SOUTH CENTRAL AND SOUTHEAST MISSOURI...
  
CITY           SKY/WX    TMP DP  RH WIND       PRES   REMARKS
CAPE GIRARDEAU LGT RAIN  48  45  89 N14       29.73R FOG              
POPLAR BLUFF   LGT RAIN  48  46  93 N14       29.75R FOG              
WEST PLAINS    CLOUDY    47  44  90 N7        29.78S                  
                                       
$$